sat.trackr.live / text

‹ back to catalog

UNKNOWN

NORAD 89251

UNKNOWN UNKNOWN UNKNOWN

§ Identity

Operator
Country
Launch date
Launch site
Launch vehicle
Mass (kg)
RCS (m²)

External: N2YO · Heavens-Above

§ Orbital elements

Epoch: 2026-09-17T14:46:01.672896Z

Period
154.88 min
Inclination
62.4909°
Eccentricity
0.2803738
Mean motion
9.29781562 rev/d
Perigee alt
496.6 km
Apogee alt
5,853.5 km
Semi-major
9,553.2 km
B*
1.3739e-3
RAAN
356.9399°
Arg perigee
126.8437°
Mean anomaly
262.3750°
Rev number
39,906

§ Raw data

UNKNOWN1 89251U          26260.61529714  .00002261  00000+0  13739-2 0  99912 89251  62.4909 356.9399 2803738 126.8437 262.3750  9.29781562399064

JSON: /api/v1/satellites/89251 · /tle

For live sub-satellite position, see the globe view (requires WebGL).

§ Visibility from observer

Set your observer location to see the next 7 days of passes ≥ 10°. The values pass through the URL so the page stays shareable.

No JS? Fill the form by hand. The geolocation button needs JavaScript.